Location: Bijele Vode
(45.2833°N, 16.2000°E)
Time: 23:24:53
(UTC+00:00)

Lacrosse 5 rocket - Pass Details

Date: 24 January 2021
Orbit: 465 x 630 km, 57.0° (Epoch: 06 March)

Event Time Altitude Azimuth Distance (km) Brightness Sun altitude
Exits shadow 03:19:43 18° 92° (E) 1,307 3.9 -32.3°
Drops below altitude 10° 03:20:49 10° 101° (E) 1,696 4.6 -32.1°
Sets 03:23:02 0° 109° (ESE) 2,552 5.7 -31.7°
